"Pseudo-MPEC" for P11Okax

Created 2023 Nov 30 8:22:04 UT using Find_Orb

Click here for an explanation of pseudo-MPECs

 
 Astrometry: 
     P11Okax* C2023 11 18BM\uHpuM-.mZ;[P.MaA=IAstrometryl/dP^VQGSHtK^oMTD!-HvF51
     P11Okax  C2023 11 18]00g+'jw6T'Oe2vrZJCrsqMrLC%N?'1yku@v0sldA)2q!GAE?;pFF51
     P11Okax  C2023 11 183BilJbs5ad0[`fk3X03T9yK;m:@b0@O,dredacted;AVnkclickBF51
     P11Okax  C2023 11 18XU#rAo+y%rSK%3LLMFh7@=C*^S1RxSdSV6t%uN*m[#r`6xfxTU?KF51
     P11Okax KC2023 11 21.42784 04 58 58.31 -12 12 13.8    ~BLE7 22.0 GVNEOCP291
     P11Okax KC2023 11 21.44160 04 58 55.79 -12 11 30.9    ~BLE7 21.9 GVNEOCP291
     P11Okax  C2023 11 22S#c,4;_AY8xogWj;b7v?d7/bhereWM;2]Z]67!vp[GPNforyy;WDF52
     P11Okax  C2023 11 220s5,8ywGUOWA2kX(YR.Ph0Zp/Y1@Wu9m[QlYSbh\?/HdAJGUV/+xF52
     P11Okax  C2023 11 22??n)RYI0Tc#6nIo!f7]_+JA/qv@[T3)-lR=!ot7w`scwWIwsrDoFF52
     P11Okax  C2023 11 22$*explanationd$_Q-lx:cyc]6[4PUxMf!J\NBbrkbPP'U5X[00xF52

Station data:
(291) LPL/Spacewatch II  (N31.961669 W111.599905)  US/Arizona.  Observers J.
   V. Scotti, R. S. McMillan. 1.8-m f/2.7 reflector + CCD.
(F51) Pan-STARRS 1, Haleakala  (N20.707234 W156.255910)  US/Hawaii.
   Observers J. Bulger, T. Lowe, A. Schultz, M. Willman. Measurers K.
   Chambers, S. Chastel, T. de Boer, L. Denneau, J. Fairlamb, H. Flewelling,
   M. Huber, C.-C. Lin, E. Magnier, Y. Ramanjooloo, R. Wainscoat, R. Weryk.
   1.8-m Ritchey-Chrétien + CCD.
(F52) Pan-STARRS 2, Haleakala  (N20.707382 W156.255910)  US/Hawaii.
   Observers J. Bulger, T. Dukes, T. Lowe, A. Schultz, M. Willman. Measurers
   K. Chambers, S. Chastel, T. de Boer, L. Denneau, J. Fairlamb, H.
   Flewelling, M. Huber, C.-C. Lin, E. Magnier, Y. Ramanjooloo, R. Wainscoat,
   R. Weryk. 1.8-m Ritchey-Chrétien + CCD.

Orbital elements:  P11Okax
   Perihelion 2023 Aug 26.79899 +/- 1.83 TT = 19:10:32 (JD 2460183.29899)
Epoch 2023 Nov 22.0 TT = JDT 2460270.5   Earth MOID: 0.4867   Ma: 0.0118
M  37.70151566 +/- 2.3              (J2000 ecliptic)             AutoNEOCP
n   0.43235179 +/- 0.0179           Peri.  275.65130 +/- 2.3
a   1.73211957 +/- 0.0478           Node    79.10348 +/- 0.29
e   0.2866096 +/- 0.00979           Incl.   35.06773 +/- 1.1
P   2.28/832.64d           H 21.30  G  0.15   U 10.0
q 1.23567734 +/- 0.0172    Q 2.22856179 +/- 0.0784
From 10 observations 2023 Nov. 18-22; mean residual 0".13
Residuals in arcseconds: 
231118 F51  .06+  .01+    231121 291  .13+  .03+    231122 F52  .21+  .03+    
231118 F51  .03-  .08-    231121 291  .05-  .04+    231122 F52  .17-  .12-    
231118 F51  .09-  .07+    231122 F52  .08+  .24-    
231118 F51  .06+  .01-    231122 F52  .14-  .32+    

Ephemerides (geocentric):
Date (UTC) HH   RA             Dec           delta  r     elong  mag " sig PA
---- --------  ------------   ------------  ------ ------ -----  --- --------
2023 11 30 08  04 32 19.290   -03 54 14.37  .49149 1.4453 154.4 21.5 10.6  88
2023 11 30 09  04 32 11.857   -03 51 47.54  .49155 1.4454 154.5 21.5 10.7  88
2023 11 30 10  04 32 04.426   -03 49 20.67  .49161 1.4456 154.5 21.5 10.8  88
2023 11 30 11  04 31 56.997   -03 46 53.77  .49167 1.4458 154.6 21.5 11.0  88
2023 11 30 12  04 31 49.571   -03 44 26.85  .49173 1.4459 154.6 21.5 11.1  89
2023 11 30 13  04 31 42.147   -03 41 59.89  .49179 1.4461 154.6 21.5 11.2  89
2023 11 30 14  04 31 34.724   -03 39 32.90  .49186 1.4462 154.7 21.5 11.3  89
2023 11 30 15  04 31 27.304   -03 37 05.88  .49192 1.4464 154.7 21.5 11.5  89
2023 11 30 16  04 31 19.887   -03 34 38.83  .49198 1.4465 154.7 21.5 11.6  89
2023 11 30 17  04 31 12.471   -03 32 11.76  .49205 1.4467 154.8 21.5 11.7  89
2023 11 30 18  04 31 05.058   -03 29 44.65  .49212 1.4468 154.8 21.5 11.8  89
2023 11 30 19  04 30 57.648   -03 27 17.52  .49218 1.4470 154.9 21.5 12.0  90
2023 11 30 20  04 30 50.239   -03 24 50.36  .49225 1.4471 154.9 21.5 12.1  90
2023 11 30 21  04 30 42.833   -03 22 23.17  .49232 1.4473 154.9 21.5 12.2  90
2023 11 30 22  04 30 35.430   -03 19 55.96  .49239 1.4474 155.0 21.5 12.4  90
2023 11 30 23  04 30 28.028   -03 17 28.72  .49245 1.4476 155.0 21.5 12.5  90
2023 12 01 00  04 30 20.630   -03 15 01.45  .49252 1.4477 155.1 21.5 12.6  90
2023 12 01 01  04 30 13.233   -03 12 34.17  .49259 1.4479 155.1 21.5 12.8  90
2023 12 01 02  04 30 05.840   -03 10 06.85  .49267 1.4480 155.1 21.5 12.9  90
2023 12 01 03  04 29 58.448   -03 07 39.52  .49274 1.4482 155.2 21.5 13.0  91
2023 12 01 04  04 29 51.060   -03 05 12.16  .49281 1.4484 155.2 21.5 13.2  91
2023 12 01 05  04 29 43.673   -03 02 44.77  .49288 1.4485 155.2 21.5 13.3  91
2023 12 01 06  04 29 36.290   -03 00 17.37  .49296 1.4487 155.3 21.5 13.4  91
2023 12 01 07  04 29 28.909   -02 57 49.94  .49303 1.4488 155.3 21.5 13.6  91
2023 12 01 08  04 29 21.530   -02 55 22.49  .49310 1.4490 155.3 21.5 13.7  91
2023 12 01 09  04 29 14.154   -02 52 55.03  .49318 1.4491 155.4 21.5 13.9  91
2023 12 01 10  04 29 06.781   -02 50 27.54  .49326 1.4493 155.4 21.5 14.0  91
2023 12 01 11  04 28 59.411   -02 48 00.03  .49333 1.4494 155.5 21.5 14.2  92
2023 12 01 12  04 28 52.043   -02 45 32.50  .49341 1.4496 155.5 21.5 14.3  92
2023 12 01 13  04 28 44.678   -02 43 04.96  .49349 1.4497 155.5 21.5 14.4  92
2023 12 01 14  04 28 37.316   -02 40 37.39  .49357 1.4499 155.6 21.5 14.6  92
2023 12 01 15  04 28 29.956   -02 38 09.81  .49364 1.4500 155.6 21.5 14.7  92
2023 12 01 16  04 28 22.599   -02 35 42.21  .49372 1.4502 155.6 21.5 14.9  92
2023 12 01 17  04 28 15.246   -02 33 14.59  .49381 1.4503 155.7 21.5 15.0  92
2023 12 01 18  04 28 07.895   -02 30 46.96  .49389 1.4505 155.7 21.5 15.2  92
2023 12 01 19  04 28 00.546   -02 28 19.31  .49397 1.4507 155.7 21.5 15.3  92
2023 12 01 20  04 27 53.201   -02 25 51.65  .49405 1.4508 155.8 21.5 15.5  93
2023 12 01 21  04 27 45.859   -02 23 23.97  .49413 1.4510 155.8 21.5 15.7  93
2023 12 01 22  04 27 38.519   -02 20 56.28  .49422 1.4511 155.8 21.5 15.8  93
2023 12 01 23  04 27 31.183   -02 18 28.58  .49430 1.4513 155.9 21.5 16.0  93
2023 12 02 00  04 27 23.849   -02 16 00.86  .49439 1.4514 155.9 21.5 16.1  93
2023 12 02 01  04 27 16.519   -02 13 33.13  .49447 1.4516 155.9 21.5 16.3  93
2023 12 02 02  04 27 09.191   -02 11 05.38  .49456 1.4517 156.0 21.5 16.4  93
2023 12 02 03  04 27 01.867   -02 08 37.63  .49465 1.4519 156.0 21.5 16.6  93
2023 12 02 04  04 26 54.545   -02 06 09.86  .49473 1.4520 156.0 21.5 16.8  93
2023 12 02 05  04 26 47.227   -02 03 42.09  .49482 1.4522 156.1 21.5 16.9  94
2023 12 02 06  04 26 39.911   -02 01 14.30  .49491 1.4523 156.1 21.5 17.1  94
2023 12 02 07  04 26 32.599   -01 58 46.50  .49500 1.4525 156.1 21.5 17.2  94